This is the latest recevied weather packets stored in our database for station/object PY1AU-13. If no packets are shown the sender has not sent any weather packets the latest 10 day(s).
| Time | Temp. | Humidity | Pressure | Rain* | Wind** | Luminosity | Snow |
|---|---|---|---|---|---|---|---|
| 1778172529 | 29.44° C | 75% | 1013.4 hPa | - | - | - | - |
| 1778172229 | 28.89° C | 75% | 1013.5 hPa | - | - | - | - |
| 1778171929 | 28.89° C | 74% | 1013.4 hPa | - | - | - | - |
| 1778171629 | 28.33° C | 76% | 1013.6 hPa | - | - | - | - |
| 1778171329 | 28.33° C | 77% | 1013.8 hPa | - | - | - | - |
| 1778171029 | 28.33° C | 78% | 1013.8 hPa | - | - | - | - |
| 1778170729 | 28.33° C | 78% | 1013.9 hPa | - | - | - | - |
| 1778170429 | 28.33° C | 78% | 1014 hPa | - | - | - | - |
| 1778170131 | 28.33° C | 83% | 1014.1 hPa | - | - | - | - |
| 1778169829 | 28.33° C | 86% | 1014.3 hPa | - | - | - | - |
| 1778169529 | 28.33° C | 87% | 1014.4 hPa | - | - | - | - |
| 1778169229 | 28.33° C | 85% | 1014.5 hPa | - | - | - | - |
| 1778168929 | 27.78° C | 84% | 1014.7 hPa | - | - | - | - |
| 1778168629 | 27.78° C | 82% | 1014.8 hPa | - | - | - | - |
| 1778168329 | 27.78° C | 82% | 1014.9 hPa | - | - | - | - |
| 1778168171 | 27.78° C | 83% | 1015 hPa | - | - | - | - |
| 1778168029 | 27.78° C | 83% | 1015 hPa | - | - | - | - |
| 1778167729 | 27.78° C | 82% | 1015.1 hPa | - | - | - | - |
| 1778167429 | 27.78° C | 81% | 1015.2 hPa | - | - | - | - |
| 1778167129 | 27.78° C | 80% | 1015.3 hPa | - | - | - | - |
| 1778166829 | 27.78° C | 82% | 1015.4 hPa | - | - | - | - |
| 1778166529 | 27.78° C | 83% | 1015.4 hPa | - | - | - | - |
| 1778166229 | 27.78° C | 85% | 1015.5 hPa | - | - | - | - |
| 1778165929 | 27.22° C | 90% | 1015.7 hPa | - | - | - | - |
| 1778165629 | 27.22° C | 90% | 1015.8 hPa | - | - | - | - |
* Rain since midnight (hover to see other rain measurements)
** Current wind speed in m/s (hover to see current wind gust speed)